RH
48 47 52 53 50 51 51 52 54 59 61 63 72 74 75 79 76 67 58 55 55 54
48 51 53 52 52 54 56 59 64 68 67 70 76 75 68 64 52 45 45 48 50 51
52 55 58 57 59 60 63 65 64 64 67 66 63 60 51 40 39 42 40 38 37 43
55 57 58 58 59 62 64 63 63 62 61 56 46 40 40 43 43 43 42 41 43 46
62 62 61 63 62 62 60 57 53 48 44 44 44 45 46 45 45 46 45 44 47 56
67 67 64 59 54 50 48 48 49 50 51 52 52 52 51 50 49 50 56 60 63 65
62 60 57 53 50 48 50 52 54 57 58 58 57 57 56 60 64 68 65 68 66 64
58 59 60 59 57 55 57 60 61 61 60 61 61 64 66 68 66 67 62 58 57 55
62 64 66 66 65 64 64 62 60 64 69 70 70 70 67 63 65 61 58 53 51 45
70 72 74 75 72 69 70 71 71 70 70 71 70 73 70 70 55 54 53 46 36 35
78 78 78 80 79 81 80 82 81 77 76 76 76 69 64 61 60 54 46 41 41 35
83 83 81 83 84 84 82 84 83 79 83 79 78 68 60 52 46 45 43 36 31 28
86 86 88 89 85 86 82 80 82 85 79 63 61 55 51 48 43 35 33 30 28 27
88 90 92 92 92 95 94 92 84 76 76 64 52 48 45 40 36 32 29 26 24 22